Location: Kapuskasing
(49.3803°N, 82.4001°W)
Time: 11:18:04
(UTC-04:00)

RS-44 - Pass Details

Date: 14 March 2026
Orbit: 1175 x 1510 km, 82.5° (Epoch: 11 April)

Event Time Altitude Azimuth Distance (km) Brightness Sun altitude
Rises 06:16:50 0° 341° (NNW) 4,394 ? -15.1°
Reaches altitude 10° 06:20:36 10° 324° (NW) 3,475 ? -14.5°
Maximum altitude 06:25:46 18° 285° (WNW) 2,933 ? -13.7°
Enters shadow 06:28:09 16° 265° (W) 3,092 ? -13.3°
